Погода в Маконе

Франция     46°18′35″N   4°49′13″E
темп.,
°C
ветер,
м/с
пор.,
м/с
влажн.,
%
обл.,
%
осадки,
мм/ч
давл.,
гПа
погр.,
м
19 апреля, пн
пн1923:00+5сз248961 0.0 102188
02:00+5сз248885 0.1 1021117
05:00+3сз229344 0.0 102127
08:00+6с259019 0.0 1020249
11:00+10с356214 0.0 10201215
14:00+13с455090 0.1 10191819
17:00+14с445156 0.0 10171692
20:00+10с24775 0.0 101768
20 апреля, вт
вт2023:00+6сз22925 0.0 101917
02:00+5сз22945 0.0 101814
05:00+4сз11945 0.0 101810
08:00+5ссз11915 0.0 101850
11:00+11св226917 0.0 1017711
14:00+15всв215417 0.0 10151364
17:00+16с114753 0.0 10131537
20:00+11ссв2578100 0.3 101393
21 апреля, ср
ср2123:00+8зсз2293100 0.9 101522
02:00+8ссз1195100 1.8 101520
05:00+7юв0097100 0.0 101611
08:00+8ююв1295100 0.1 1016119
11:00+10ююв2684100 0.4 1016734
14:00+10ююз3783100 0.8 1017876
17:00+11ююв3675100 0.3 1016787
20:00+10ююв378798 0.4 1016536
22 апреля, чт
чт2223:00+8юв1398100 0.9 1018124
02:00+8ююз239792 0.9 1018127
05:00+8ю1193100 0.0 101724
08:00+8в1198100 0.1 101878
11:00+10всв128868 0.1 1019460
14:00+14св347165 0.9 10181062
17:00+15ссв566057 0.3 10171478
20:00+11ссв511740 0.4 1018750
23 апреля, пт
пт2323:00+7с513650 0.0 1021463
02:00+5ссз412750 0.0 1021361
05:00+3ссз310800 0.0 1021311
08:00+4с411730 0.0 1022397
11:00+10ссв58540 0.0 1022844
14:00+14с67420 0.0 10211416
17:00+14с67430 0.0 10201091
20:00+11с512570 0.0 1021577